Weather in Jamburg

Russia / Yamalo-Nenets Autonomous Okrug     67°55′28″N   74°55′20″E
temp.,
°C
wind,
m/s
gust,
m/s
humid.,
%
clouds,
%
prec.,
mm/h
press.,
hPa
HPBL,
m
27 february, sat
sat2723:00−24sw1110095 0.1 102220
02:00−28ese0110080 0.0 102219
05:00−28ese2210087 0.0 102319
08:00−29se239456 0.0 102320
11:00−28se229463 0.0 102326
14:00−28se339474 0.0 102461
17:00−30sse349470 0.0 102423
20:00−29sse459598 0.0 102484
28 february, sun
sun2823:00−29sse449595 0.0 102473
02:00−30sse459686 0.0 102373
05:00−29sse479690 0.0 1024133
08:00−29sse5896100 0.0 1023150
11:00−27sse5895100 0.0 1023237
14:00−25sse5894100 0.0 1024251
17:00−27sse5996100 0.0 1023147
20:00−28sse5996100 0.0 1022164
1 march, mon
mon123:00−27sse599695 0.0 1022167
02:00−26s51095100 0.0 1021223
05:00−26s61094100 0.0 1020242
08:00−25s61193100 0.0 1018270
11:00−24s71291100 0.0 1018346
14:00−24s71290100 0.0 1016366
17:00−24s71390100 0.0 1015360
20:00−23s71491100 0.0 1014353
2 march, tue
tue223:00−24s81490100 0.0 1012317
02:00−24s71389100 0.0 1012297
05:00−24s81487100 0.0 1011302
08:00−23s81685100 0.0 1009336
11:00−21s91582100 0.0 1009408
14:00−20s91582100 0.0 1009466
17:00−20s91684100 0.0 1009452
20:00−19s91684100 0.0 1009450
3 march, wed
wed323:00−19s91684100 0.0 1009446
02:00−20s81487100 0.0 1009392
05:00−21s81490100 0.0 1009356
08:00−22sse81592100 0.0 1009342
11:00−21sse81493100 0.0 1009395
14:00−20s91592100 0.0 1010427
17:00−20sse81493100 0.0 1009407
20:00−21sse81494100 0.0 1009392